Tracking 23726 objects as of 24-Sep-2021
HD Live streaming from Space Station
objects crossing your sky now

ONEWEB-0323

Track ONEWEB-0323 now!
10-day predictions
ONEWEB-0323 is classified as:


NORAD ID: 49106
Int'l Code: 2021-075AH
Perigee: 517.7 km
Apogee: 548.1 km
Inclination: 87.3 °
Period: 95.1 minutes
Semi major axis: 6903 km
RCS: Unknown
Launch date: August 21, 2021
Source: United Kingdom (UK)
Launch site: TYURATAM MISSILE AND SPACE COMPLEX (TTMTR)
aabbcc
Your satellite tracking list
Your tracking list is empty




NASA's NSSDC Master Catalog

Two Line Element Set (TLE):
1 49106U 21075AH  21266.91668981 -.00938498  00000-0 -56472-1 0  9998
2 49106  87.2972 354.6453 0022006 168.2917  74.2564 15.13433962  3616
Source of the keplerian elements: AFSPC